Terminal Aerodrome Forecast
Issued by NWS Sioux Falls, SD

Home | Current Version | Previous Version | Text Only | Print | Product List | Glossary Off
Versions: 1 2 3 4 5 6 7 8 9 10 11 12 13 14 15

000
FTUS43 KFSD 271942 AAA
TAFFSD
TAF AMD
KFSD 271942Z 2720/2818 32014G18KT P6SM -RA BKN010
      TEMPO 2720/2722 SCT010 OVC060
     FM272200 30012KT P6SM BKN060
     FM280200 27007KT P6SM FEW120
     FM280900 28011KT P6SM BKN035
     FM281300 29018G25KT P6SM OVC030=

USA.gov is the U.S. government's official web portal to all federal, state and local government web resources and services.